STARLINK-11607, 63140

Orbit data source: Space-Track

STARLINK-11607, 63140 is a payload satellite owned by SpaceX/Seattle (US) in LEO that was launched on Mon, 03 Mar 2025 UTC via an FALCON 9 launch vehicle from the Air Force Eastern Test Range (AFETR). Payload-class satellites include a variety of spacecraft equipped with specific instruments for various scientific and technological missions. These include communications satellites like Starlink; space stations such as the ISS; scientific satellites like the Hubble; Earth observation satellites from companies like Planet Labs, Umbra, and HawkEye 360; GPS; miniature CubeSats for education and research; and military/defense satellites.

Loading next visibility...
Identifier
63140, 2025-043J
Orbit
LEO
Country
Flag of USUS
Related business
Manufacturer
SpaceX/Seattle
Mission
Operational Commercial Communications
Bus & Motor
STARLINK V2MD, Unknown motor
Mass
960 kg wet, ~910 kg dry
Launch date (UTC)
2025-03-03 (8 months ago)
Launch vehicle
FALCON 9
Launch site
Air Force Eastern Test Range (AFETR)
Object type
Payload
Rocket body
Debris
Shape & HBR
Box + 2 Pan, 18.1 m
Radar Cross Section
36.964 m², Large (>1 m²)

Expand to show TLE details & history
Last TLE update: 17 hours ago

TLE from 17 hours ago
0 STARLINK-11607
1 63140U 25043J   25306.25985601  .00218359  00000-0  16568-2 0  9996
2 63140  43.0005 298.5593 0002614 274.0288  86.0281 15.70897633 39436
Epoch: 2025-11-02T06:14Z
TLE epoch observation values (Epoch: 2025-11-02T06:14:11.559Z)
Latitude
Longitude
163.233°
Altitude
355.98 km
Speed
7.698 km/s
True Right ascension
19h 54m 14s
True Declination
0° 00' 00"
Sunlit
Object was in daylight at epoch
Visualization orbit readout
Latitude
Unknown
Longitude
Unknown
Altitude
Unknown
Speed
Unknown
Apparent Right ascension
Unknown
Apparent Declination
Unknown
Sunlit
N/A
Visualization observer readout
Local Sidereal Time
18:37:03
Azimuth
Unknown
Elevation
Unknown
Doppler factor
Unknown
Orbital elements
Apogee altitude
360.073 km
Perigee altitude
356.551 km
Semi-major axis
6,736.449 km
Eccentricity
0.00026
Inclination
43.0005°
RAAN
298.5593°
Arg. of periapsis
274.0288°
True anomaly
86.05798°
Mean anomaly
86.0281°
Eccentric anomaly
86.04304°
Mean motion
3.92552 °/min
Orbital period
91.71 mins
BSTAR
0.0016568
Loading maneuver chart data...
Computing Atmospheric mass density...
Loading historical data...
Loading historical data...
Loading historical data...
Loading historical data...
Loading historical data...
Loading historical data...
Loading historical data...

Documentation

Showing up to 5 results
|